| time (UTC) | temp C | wind direction | speed KPH | gust KPH | rain 1hr cm | rain 24hr cm | rain mn cm | humidity % | barometer mb |
| 20260506023635 | 9 | 26 | 0.0 | 1.6 | 0.00 | 0.00 | 0.00 | 87 | 1008.2 |
| 20260506023108 | 9 | 33 | 0.0 | 1.6 | 0.00 | 0.00 | 0.00 | 87 | 1008.2 |
| 20260506022632 | 9 | 32 | 0.0 | 1.6 | 0.00 | 0.00 | 0.00 | 87 | 1008.2 |
| 20260506021618 | 9 | 30 | 0.0 | 1.6 | 0.00 | 0.00 | 0.00 | 86 | 1008.3 |
| 20260506021053 | 9 | 39 | 0.0 | 3.2 | 0.00 | 0.00 | 0.00 | 86 | 1008.3 |
| 20260506020721 | 9 | 39 | 0.0 | 3.2 | 0.00 | 0.00 | 0.00 | 86 | 1008.4 |
| 20260506015125 | 9 | 37 | 0.0 | 4.8 | 0.00 | 0.00 | 0.00 | 85 | 1008.4 |
| 20260506014603 | 9 | 41 | 0.0 | 1.6 | 0.00 | 0.00 | 0.00 | 84 | 1008.3 |
| 20260506014136 | 9 | 19 | 0.0 | 3.2 | 0.00 | 0.00 | 0.00 | 84 | 1008.4 |
| 20260506013608 | 9 | 17 | 0.0 | 3.2 | 0.00 | 0.00 | 0.00 | 84 | 1008.3 |
| 20260506013131 | 9 | 17 | 0.0 | 4.8 | 0.00 | 0.00 | 0.00 | 84 | 1008.4 |
| 20260506012120 | 9 | 13 | 0.0 | 4.8 | 0.00 | 0.00 | 0.00 | 83 | 1008.5 |
| 20260506011544 | 9 | 22 | 0.0 | 3.2 | 0.00 | 0.00 | 0.00 | 83 | 1008.5 |
| 20260506011111 | 9 | 20 | 0.0 | 3.2 | 0.00 | 0.00 | 0.00 | 83 | 1008.5 |
| 20260506010632 | 9 | 26 | 0.0 | 0.0 | 0.00 | 0.00 | 0.00 | 82 | 1008.6 |
| 20260506010158 | 9 | 27 | 0.0 | 1.6 | 0.00 | 0.00 | 0.00 | 82 | 1008.6 |
| 20260506005049 | 10 | 27 | 0.0 | 1.6 | 0.00 | 0.00 | 0.00 | 82 | 1008.7 |
| 20260506004617 | 10 | 27 | 0.0 | 6.4 | 0.00 | 0.00 | 0.00 | 82 | 1008.6 |
| 20260506004051 | 10 | 27 | 0.0 | 6.4 | 0.00 | 0.00 | 0.00 | 82 | 1008.8 |
| 20260506003616 | 10 | 29 | 0.0 | 3.2 | 0.00 | 0.00 | 0.00 | 82 | 1008.9 |
| 20260506003042 | 10 | 29 | 0.0 | 3.2 | 0.00 | 0.00 | 0.00 | 82 | 1008.9 |
| 20260506002603 | 10 | 32 | 0.0 | 3.2 | 0.00 | 0.00 | 0.00 | 82 | 1009.0 |
| 20260506002126 | 10 | 26 | 0.0 | 0.0 | 0.00 | 0.00 | 0.00 | 82 | 1009.0 |
| 20260506001601 | 10 | 26 | 0.0 | 3.2 | 0.00 | 0.00 | 0.00 | 82 | 1009.0 |
| 20260506001032 | 10 | 26 | 0.0 | 3.2 | 0.00 | 0.00 | 0.00 | 83 | 1009.1 |
| 20260506000554 | 10 | 22 | 0.0 | 3.2 | 0.00 | 0.00 | 0.00 | 83 | 1009.1 |
| 20260506000119 | 10 | 41 | 0.0 | 3.2 | 0.00 | 0.00 | 0.00 | 83 | 1009.0 |
| 20260505235157 | 10 | 27 | 0.0 | 6.4 | 0.00 | 0.00 | 0.00 | 83 | 1009.0 |
| 20260505234033 | 10 | 16 | 0.0 | 3.2 | 0.00 | 0.00 | 0.00 | 83 | 1009.0 |
| 20260505233557 | 10 | 32 | 0.0 | 4.8 | 0.00 | 0.00 | 0.00 | 82 | 1009.0 |
| 20260505233125 | 10 | 34 | 0.0 | 4.8 | 0.00 | 0.00 | 0.00 | 82 | 1009.0 |
| 20260505232553 | 10 | 358 | 0.0 | 4.8 | 0.00 | 0.00 | 0.00 | 82 | 1009.1 |
| 20260505232023 | 10 | 44 | 0.0 | 4.8 | 0.00 | 0.00 | 0.00 | 82 | 1009.2 |
| 20260505231640 | 10 | 12 | 0.0 | 6.4 | 0.00 | 0.00 | 0.00 | 82 | 1009.2 |
| 20260505230605 | 10 | 8 | 1.6 | 4.8 | 0.00 | 0.00 | 0.00 | 82 | 1009.2 |
| 20260505230110 | 10 | 12 | 0.0 | 8.0 | 0.00 | 0.00 | 0.00 | 82 | 1009.2 |
| 20260505225143 | 10 | 37 | 0.0 | 6.4 | 0.00 | 0.00 | 0.00 | 81 | 1009.4 |
| 20260505224117 | 10 | 41 | 0.0 | 4.8 | 0.00 | 0.00 | 0.00 | 81 | 1009.4 |
| 20260505223053 | 10 | 44 | 0.0 | 6.4 | 0.00 | 0.00 | 0.00 | 81 | 1009.6 |
| 20260505222524 | 10 | 17 | 0.0 | 6.4 | 0.00 | 0.00 | 0.00 | 80 | 1009.7 |
| 20260505222048 | 10 | 5 | 1.6 | 6.4 | 0.00 | 0.00 | 0.00 | 80 | 1009.6 |
| 20260505221525 | 10 | 34 | 0.0 | 9.7 | 0.00 | 0.00 | 0.00 | 80 | 1009.6 |
| 20260505221045 | 10 | 43 | 4.8 | 9.7 | 0.00 | 0.00 | 0.00 | 80 | 1009.7 |
| 20260505220608 | 10 | 22 | 0.0 | 4.8 | 0.00 | 0.00 | 0.00 | 80 | 1009.7 |
| 20260505215537 | 10 | 26 | 0.0 | 8.0 | 0.00 | 0.00 | 0.00 | 80 | 1009.8 |
| 20260505215012 | 10 | 23 | 1.6 | 8.0 | 0.00 | 0.00 | 0.00 | 80 | 1009.8 |
| 20260505214538 | 10 | 55 | 0.0 | 6.4 | 0.00 | 0.00 | 0.00 | 80 | 1009.7 |
| 20260505214147 | 10 | 60 | 0.0 | 6.4 | 0.00 | 0.00 | 0.00 | 80 | 1009.9 |
| 20260505213107 | 10 | 348 | 3.2 | 11.3 | 0.00 | 0.00 | 0.00 | 80 | 1009.9 |
| 20260505212039 | 10 | 27 | 1.6 | 4.8 | 0.00 | 0.00 | 0.00 | 80 | 1010.0 |
| 20260505211556 | 10 | 41 | 0.0 | 6.4 | 0.00 | 0.00 | 0.00 | 80 | 1010.0 |
| 20260505211115 | 10 | 36 | 0.0 | 8.0 | 0.00 | 0.00 | 0.00 | 79 | 1009.9 |
| 20260505210145 | 10 | 359 | 1.6 | 9.7 | 0.00 | 0.00 | 0.00 | 79 | 1010.0 |
| 20260505205024 | 10 | 24 | 0.0 | 8.0 | 0.00 | 0.00 | 0.00 | 79 | 1010.0 |
| 20260505204541 | 10 | 16 | 0.0 | 8.0 | 0.00 | 0.00 | 0.00 | 79 | 1010.0 |
| 20260505204004 | 10 | 37 | 0.0 | 4.8 | 0.00 | 0.00 | 0.00 | 80 | 1010.0 |
| 20260505203532 | 10 | 51 | 0.0 | 0.0 | 0.00 | 0.00 | 0.00 | 80 | 1010.1 |
| 20260505203009 | 10 | 44 | 0.0 | 3.2 | 0.00 | 0.00 | 0.00 | 81 | 1010.1 |
| 20260505202635 | 10 | 44 | 0.0 | 3.2 | 0.00 | 0.00 | 0.00 | 81 | 1010.0 |
| 20260505201034 | 10 | 136 | 0.0 | 8.0 | 0.00 | 0.00 | 0.00 | 81 | 1010.1 |
| 20260505200558 | 10 | 53 | 1.6 | 8.0 | 0.00 | 0.00 | 0.00 | 81 | 1010.1 |
| 20260505200109 | 10 | 355 | 1.6 | 8.0 | 0.00 | 0.00 | 0.00 | 81 | 1010.1 |
| 20260505195725 | 10 | 351 | 1.6 | 8.0 | 0.00 | 0.00 | 0.00 | 81 | 1010.1 |
| 20260505194019 | 10 | 15 | 0.0 | 6.4 | 0.00 | 0.00 | 0.00 | 81 | 1010.1 |
| 20260505193538 | 10 | 29 | 0.0 | 6.4 | 0.00 | 0.00 | 0.00 | 81 | 1010.0 |
| 20260505192956 | 10 | 54 | 0.0 | 6.4 | 0.00 | 0.00 | 0.00 | 81 | 1009.9 |
| 20260505192518 | 10 | 75 | 1.6 | 8.0 | 0.00 | 0.00 | 0.00 | 81 | 1009.9 |
| 20260505192136 | 10 | 6 | 0.0 | 8.0 | 0.00 | 0.00 | 0.00 | 80 | 1010.0 |
| 20260505191014 | 10 | 112 | 0.0 | 8.0 | 0.00 | 0.00 | 0.00 | 80 | 1010.0 |
| 20260505190535 | 10 | 70 | 0.0 | 3.2 | 0.00 | 0.00 | 0.00 | 80 | 1010.0 |
| 20260505190056 | 10 | 48 | 0.0 | 9.7 | 0.00 | 0.00 | 0.00 | 80 | 1009.9 |
| 20260505185520 | 10 | 40 | 0.0 | 9.7 | 0.00 | 0.00 | 0.00 | 79 | 1009.8 |
| 20260505185042 | 10 | 359 | 1.6 | 8.0 | 0.00 | 0.00 | 0.00 | 79 | 1009.8 |
| 20260505184455 | 10 | 26 | 1.6 | 8.0 | 0.00 | 0.00 | 0.00 | 79 | 1009.9 |
| 20260505184011 | 10 | 58 | 0.0 | 6.4 | 0.00 | 0.00 | 0.00 | 79 | 1009.8 |
| 20260505183541 | 10 | 84 | 0.0 | 6.4 | 0.00 | 0.00 | 0.00 | 79 | 1009.9 |
| 20260505183004 | 10 | 27 | 0.0 | 6.4 | 0.00 | 0.00 | 0.00 | 79 | 1009.9 |
| 20260505182523 | 10 | 356 | 0.0 | 6.4 | 0.00 | 0.00 | 0.00 | 79 | 1009.9 |
| 20260505182042 | 10 | 39 | 1.6 | 6.4 | 0.00 | 0.00 | 0.00 | 78 | 1009.9 |
| 20260505181503 | 10 | 0 | 1.6 | 6.4 | 0.00 | 0.00 | 0.00 | 78 | 1009.9 |
| 20260505181121 | 10 | 150 | 0.0 | 8.0 | 0.00 | 0.00 | 0.00 | 78 | 1009.8 |
| 20260505180055 | 11 | 67 | 0.0 | 4.8 | 0.00 | 0.00 | 0.00 | 77 | 1009.9 |
| 20260505175526 | 11 | 15 | 0.0 | 4.8 | 0.00 | 0.00 | 0.00 | 77 | 1009.9 |
| 20260505175054 | 11 | 37 | 0.0 | 4.8 | 0.00 | 0.00 | 0.00 | 77 | 1009.9 |
| 20260505174532 | 11 | 103 | 0.0 | 4.8 | 0.00 | 0.00 | 0.00 | 77 | 1010.0 |
| 20260505174005 | 11 | 43 | 0.0 | 4.8 | 0.00 | 0.00 | 0.00 | 77 | 1010.0 |
| 20260505173527 | 11 | 34 | 0.0 | 11.3 | 0.00 | 0.00 | 0.00 | 77 | 1009.9 |
| 20260505173003 | 11 | 33 | 0.0 | 11.3 | 0.00 | 0.00 | 0.00 | 77 | 1009.9 |
| 20260505172612 | 11 | 6 | 1.6 | 11.3 | 0.00 | 0.00 | 0.00 | 76 | 1009.8 |
| 20260505171531 | 11 | 82 | 0.0 | 8.0 | 0.00 | 0.00 | 0.00 | 76 | 1009.9 |
| 20260505171053 | 11 | 0 | 1.6 | 8.0 | 0.00 | 0.00 | 0.00 | 76 | 1009.9 |
| 20260505170707 | 11 | 65 | 1.6 | 6.4 | 0.00 | 0.00 | 0.00 | 75 | 1010.0 |
| 20260505165727 | 11 | 2 | 1.6 | 11.3 | 0.00 | 0.00 | 0.00 | 76 | 1010.0 |
| 20260505164011 | 11 | 17 | 1.6 | 8.0 | 0.00 | 0.00 | 0.00 | 75 | 1010.1 |
| 20260505163522 | 11 | 96 | 0.0 | 14.5 | 0.00 | 0.00 | 0.00 | 75 | 1010.0 |
| 20260505163043 | 11 | 125 | 0.0 | 14.5 | 0.00 | 0.00 | 0.00 | 75 | 1010.1 |
| 20260505162607 | 11 | 339 | 0.0 | 8.0 | 0.00 | 0.00 | 0.00 | 74 | 1010.0 |
| 20260505161540 | 11 | 26 | 0.0 | 8.0 | 0.00 | 0.00 | 0.00 | 74 | 1010.1 |
| 20260505161002 | 11 | 17 | 1.6 | 6.4 | 0.00 | 0.00 | 0.00 | 73 | 1010.0 |
| 20260505160521 | 12 | 37 | 0.0 | 9.7 | 0.00 | 0.00 | 0.00 | 73 | 1010.1 |
| 20260505160131 | 12 | 190 | 0.0 | 9.7 | 0.00 | 0.00 | 0.00 | 73 | 1010.1 |
| 20260505153019 | 12 | 34 | 1.6 | 9.7 | 0.00 | 0.00 | 0.00 | 73 | 1010.1 |
| 20260505152638 | 12 | 358 | 0.0 | 9.7 | 0.00 | 0.00 | 0.00 | 72 | 1010.1 |
| 20260505151519 | 12 | 2 | 0.0 | 11.3 | 0.00 | 0.00 | 0.00 | 73 | 1010.2 |
| 20260505151140 | 12 | 116 | 4.8 | 11.3 | 0.00 | 0.00 | 0.00 | 73 | 1010.2 |
| 20260505140448 | 12 | 91 | 0.0 | 4.8 | 0.00 | 0.00 | 0.00 | 74 | 1010.6 |
| 20260505125022 | 11 | 33 | 3.2 | 9.7 | 0.00 | 0.00 | 0.00 | 75 | 1010.8 |
| 20260505124543 | 11 | 351 | 0.0 | 9.7 | 0.00 | 0.00 | 0.00 | 75 | 1010.9 |
| 20260505124004 | 11 | 37 | 0.0 | 11.3 | 0.00 | 0.00 | 0.00 | 75 | 1011.0 |
| 20260505123617 | 11 | 351 | 3.2 | 11.3 | 0.00 | 0.00 | 0.00 | 75 | 1011.1 |
| 20260505122545 | 11 | 0 | 0.0 | 8.0 | 0.00 | 0.00 | 0.00 | 75 | 1011.1 |
| 20260505122004 | 11 | 356 | 0.0 | 8.0 | 0.00 | 0.00 | 0.00 | 75 | 1011.1 |
| 20260505121523 | 11 | 30 | 0.0 | 4.8 | 0.00 | 0.00 | 0.00 | 75 | 1011.0 |
| 20260505120950 | 11 | 355 | 0.0 | 6.4 | 0.00 | 0.00 | 0.00 | 75 | 1011.2 |
| 20260505120519 | 11 | 101 | 0.0 | 6.4 | 0.00 | 0.00 | 0.00 | 75 | 1011.0 |
| 20260505120037 | 11 | 297 | 0.0 | 11.3 | 0.00 | 0.00 | 0.00 | 75 | 1011.1 |
| 20260505115503 | 11 | 359 | 0.0 | 11.3 | 0.00 | 0.00 | 0.00 | 75 | 1011.1 |
| 20260505115121 | 11 | 346 | 0.0 | 11.3 | 0.00 | 0.00 | 0.00 | 76 | 1011.1 |
| 20260505114551 | 11 | 3 | 0.0 | 11.3 | 0.00 | 0.00 | 0.00 | 76 | 1011.0 |
| 20260505114211 | 11 | 8 | 0.0 | 8.0 | 0.00 | 0.00 | 0.00 | 75 | 1011.0 |
| 20260505113048 | 11 | 47 | 0.0 | 3.2 | 0.00 | 0.00 | 0.00 | 76 | 1011.1 |
| 20260505112613 | 11 | 0 | 0.0 | 3.2 | 0.00 | 0.00 | 0.00 | 75 | 1011.1 |
| 20260505112043 | 11 | 180 | 0.0 | 3.2 | 0.00 | 0.00 | 0.00 | 75 | 1011.2 |
| 20260505111610 | 11 | 308 | 0.0 | 4.8 | 0.00 | 0.03 | 0.00 | 75 | 1011.3 |
| 20260505111134 | 11 | 122 | 0.0 | 6.4 | 0.00 | 0.03 | 0.00 | 75 | 1011.3 |
| 20260505110608 | 11 | 141 | 1.6 | 6.4 | 0.00 | 0.03 | 0.00 | 75 | 1011.2 |
| 20260505110130 | 11 | 251 | 0.0 | 3.2 | 0.00 | 0.03 | 0.00 | 75 | 1011.3 |
| 20260505102217 | 11 | 228 | 0.0 | 6.4 | 0.00 | 0.03 | 0.00 | 74 | 1011.2 |
| 20260505101100 | 11 | 180 | 0.0 | 1.6 | 0.00 | 0.03 | 0.00 | 75 | 1011.2 |
| 20260505100527 | 11 | 180 | 0.0 | 14.5 | 0.00 | 0.03 | 0.00 | 75 | 1011.2 |
| 20260505100047 | 11 | 8 | 1.6 | 14.5 | 0.00 | 0.03 | 0.00 | 74 | 1011.2 |
| 20260505095605 | 11 | 30 | 3.2 | 8.0 | 0.00 | 0.03 | 0.00 | 74 | 1011.2 |
| 20260505095030 | 11 | 164 | 0.0 | 6.4 | 0.00 | 0.03 | 0.00 | 74 | 1011.4 |
| 20260505094552 | 11 | 150 | 0.0 | 4.8 | 0.00 | 0.03 | 0.00 | 74 | 1011.3 |
| 20260505094116 | 11 | 205 | 0.0 | 4.8 | 0.00 | 0.05 | 0.00 | 75 | 1011.3 |
| 20260505093545 | 11 | 110 | 0.0 | 6.4 | 0.00 | 0.05 | 0.00 | 75 | 1011.3 |
| 20260505093113 | 11 | 53 | 0.0 | 9.7 | 0.00 | 0.05 | 0.00 | 76 | 1011.4 |
| 20260505092053 | 10 | 33 | 0.0 | 11.3 | 0.00 | 0.05 | 0.00 | 77 | 1011.5 |
| 20260505091612 | 10 | 353 | 3.2 | 11.3 | 0.00 | 0.05 | 0.00 | 76 | 1011.6 |
| 20260505091031 | 10 | 79 | 0.0 | 4.8 | 0.00 | 0.05 | 0.00 | 76 | 1011.6 |
| 20260505090553 | 10 | 43 | 0.0 | 0.0 | 0.00 | 0.05 | 0.00 | 76 | 1011.6 |
| 20260505090017 | 10 | 41 | 0.0 | 1.6 | 0.00 | 0.05 | 0.00 | 76 | 1011.8 |
| 20260505085544 | 10 | 41 | 0.0 | 1.6 | 0.00 | 0.05 | 0.00 | 76 | 1011.9 |
| 20260505085024 | 10 | 50 | 0.0 | 3.2 | 0.00 | 0.05 | 0.00 | 77 | 1012.0 |
| 20260505084559 | 10 | 40 | 0.0 | 3.2 | 0.00 | 0.05 | 0.00 | 77 | 1012.1 |
| 20260505084021 | 10 | 58 | 0.0 | 3.2 | 0.00 | 0.05 | 0.00 | 76 | 1012.1 |
| 20260505083543 | 10 | 60 | 0.0 | 3.2 | 0.00 | 0.05 | 0.00 | 77 | 1012.0 |
| 20260505083100 | 10 | 339 | 0.0 | 3.2 | 0.00 | 0.05 | 0.00 | 78 | 1012.0 |
| 20260505082528 | 10 | 16 | 0.0 | 3.2 | 0.00 | 0.05 | 0.00 | 78 | 1011.9 |
| 20260505082004 | 10 | 30 | 0.0 | 3.2 | 0.00 | 0.05 | 0.00 | 79 | 1011.9 |
| 20260505081538 | 10 | 24 | 0.0 | 3.2 | 0.00 | 0.05 | 0.00 | 79 | 1011.9 |
| 20260505081006 | 10 | 150 | 0.0 | 4.8 | 0.00 | 0.05 | 0.00 | 79 | 1011.9 |
| 20260505080534 | 10 | 150 | 0.0 | 4.8 | 0.00 | 0.05 | 0.00 | 79 | 1011.9 |
| 20260505080054 | 10 | 106 | 0.0 | 1.6 | 0.00 | 0.05 | 0.00 | 80 | 1011.9 |
| 20260505075102 | 9 | 36 | 0.0 | 0.0 | 0.00 | 0.05 | 0.00 | 80 | 1011.8 |
| 20260505074531 | 9 | 36 | 0.0 | 0.0 | 0.00 | 0.05 | 0.00 | 80 | 1011.8 |
| 20260505074001 | 9 | 37 | 0.0 | 0.0 | 0.00 | 0.05 | 0.00 | 80 | 1011.8 |
| 20260505073538 | 9 | 39 | 0.0 | 0.0 | 0.00 | 0.05 | 0.00 | 80 | 1011.8 |
| 20260505072529 | 9 | 37 | 0.0 | 8.0 | 0.00 | 0.05 | 0.00 | 80 | 1011.8 |
| 20260505072002 | 9 | 30 | 0.0 | 8.0 | 0.00 | 0.05 | 0.00 | 80 | 1011.8 |
| 20260505071530 | 9 | 29 | 1.6 | 8.0 | 0.00 | 0.05 | 0.00 | 81 | 1011.9 |
| 20260505071005 | 9 | 291 | 0.0 | 3.2 | 0.00 | 0.05 | 0.00 | 81 | 1011.8 |
| 20260505070535 | 9 | 291 | 0.0 | 6.4 | 0.00 | 0.05 | 0.00 | 81 | 1011.8 |
| 20260505070005 | 9 | 23 | 1.6 | 6.4 | 0.00 | 0.05 | 0.00 | 81 | 1011.8 |
| 20260505065530 | 9 | 110 | 0.0 | 14.5 | 0.00 | 0.05 | 0.00 | 81 | 1011.8 |
| 20260505065008 | 9 | 26 | 1.6 | 14.5 | 0.00 | 0.05 | 0.00 | 81 | 1011.8 |
| 20260505064520 | 9 | 24 | 0.0 | 4.8 | 0.00 | 0.05 | 0.00 | 82 | 1011.8 |
| 20260505064130 | 9 | 12 | 1.6 | 4.8 | 0.00 | 0.05 | 0.00 | 82 | 1011.9 |
| 20260505063012 | 9 | 57 | 0.0 | 3.2 | 0.00 | 0.05 | 0.00 | 82 | 1012.0 |
| 20260505062539 | 9 | 61 | 0.0 | 0.0 | 0.00 | 0.05 | 0.00 | 83 | 1011.9 |
| 20260505062021 | 9 | 61 | 0.0 | 6.4 | 0.00 | 0.05 | 0.00 | 83 | 1012.0 |
| 20260505061455 | 9 | 61 | 0.0 | 6.4 | 0.00 | 0.05 | 0.00 | 83 | 1011.9 |
| 20260505061015 | 9 | 40 | 0.0 | 3.2 | 0.00 | 0.05 | 0.00 | 83 | 1011.9 |
| 20260505060543 | 9 | 44 | 0.0 | 3.2 | 0.00 | 0.05 | 0.00 | 83 | 1011.8 |
| 20260505055434 | 8 | 99 | 0.0 | 3.2 | 0.00 | 0.05 | 0.00 | 83 | 1011.7 |
| 20260505055003 | 8 | 34 | 0.0 | 3.2 | 0.00 | 0.05 | 0.00 | 83 | 1011.8 |
| 20260505054529 | 8 | 64 | 0.0 | 4.8 | 0.00 | 0.05 | 0.00 | 83 | 1012.0 |
| 20260505053956 | 8 | 20 | 0.0 | 4.8 | 0.00 | 0.05 | 0.00 | 84 | 1011.9 |
| 20260505053521 | 8 | 43 | 0.0 | 1.6 | 0.00 | 0.05 | 0.00 | 84 | 1012.0 |
| 20260505052953 | 8 | 41 | 0.0 | 1.6 | 0.00 | 0.05 | 0.00 | 84 | 1011.9 |
| 20260505052437 | 8 | 46 | 0.0 | 1.6 | 0.00 | 0.05 | 0.00 | 84 | 1011.9 |
| 20260505052006 | 8 | 20 | 0.0 | 1.6 | 0.00 | 0.05 | 0.00 | 84 | 1012.0 |
| 20260505051440 | 8 | 8 | 0.0 | 3.2 | 0.00 | 0.05 | 0.00 | 84 | 1011.8 |
| 20260505051018 | 8 | 9 | 0.0 | 3.2 | 0.00 | 0.05 | 0.00 | 84 | 1011.8 |
| 20260505050557 | 8 | 27 | 0.0 | 1.6 | 0.00 | 0.05 | 0.00 | 84 | 1011.8 |
| 20260505041431 | 8 | 41 | 0.0 | 1.6 | 0.00 | 0.05 | 0.00 | 84 | 1011.6 |
| 20260505041001 | 8 | 41 | 0.0 | 4.8 | 0.00 | 0.05 | 0.00 | 84 | 1011.6 |
| 20260505040438 | 8 | 13 | 0.0 | 4.8 | 0.00 | 0.05 | 0.00 | 85 | 1011.6 |
| 20260505040004 | 8 | 12 | 0.0 | 3.2 | 0.00 | 0.05 | 0.00 | 85 | 1011.6 |
| 20260505035533 | 8 | 12 | 0.0 | 3.2 | 0.00 | 0.05 | 0.00 | 84 | 1011.6 |
| 20260505034431 | 8 | 2 | 0.0 | 3.2 | 0.00 | 0.05 | 0.00 | 85 | 1011.7 |
| 20260505033959 | 8 | 36 | 0.0 | 3.2 | 0.00 | 0.05 | 0.00 | 85 | 1011.6 |
| 20260505033436 | 8 | 27 | 0.0 | 4.8 | 0.00 | 0.05 | 0.00 | 85 | 1011.6 |
| 20260505032921 | 8 | 32 | 0.0 | 4.8 | 0.00 | 0.05 | 0.00 | 85 | 1011.6 |
| 20260505032437 | 8 | 119 | 0.0 | 4.8 | 0.00 | 0.05 | 0.00 | 85 | 1011.7 |
| 20260505032058 | 8 | 39 | 0.0 | 4.8 | 0.00 | 0.05 | 0.00 | 85 | 1011.7 |
| 20260505030408 | 9 | 48 | 0.0 | 0.0 | 0.00 | 0.05 | 0.00 | 85 | 1011.8 |
| 20260505025936 | 9 | 48 | 0.0 | 0.0 | 0.00 | 0.05 | 0.00 | 84 | 1011.8 |
| 20260505025415 | 9 | 48 | 0.0 | 0.0 | 0.00 | 0.05 | 0.00 | 85 | 1011.8 |
| 20260505024947 | 9 | 46 | 0.0 | 0.0 | 0.00 | 0.05 | 0.00 | 84 | 1011.9 |
| 20260505024423 | 9 | 46 | 0.0 | 1.6 | 0.00 | 0.05 | 0.00 | 84 | 1012.0 |